[[{"header":{"parameterUnit":"m.s-1","parameterCategory":2,"la1":30.2991,"la2":30.254,"lo1":-89.0895,"lo2":-89.0444,"dy":0.0017,"dx":0.0017,"nx":28,"ny":28,"refTime":"2025-04-24T09:00:00:Z","depth":"0","parameterNumber":2,"parameterNumberName":"U-component_of_CURRENTS"},"data":[0,0,0,0,0,0,0,0,0,0,0,0,0,0,0,0,0,0,0,0,0,0,0,0,0,0,0,0,0,0,0,0,0,0,0,0,0,0,0,0,0,0,0,0,0,0,0,0,0,0,0,0,0,0,0,0,0,0,0.1887,0.1887,0,0.184,0.1839,0.1838,0.1812,0.1813,0.1813,0.1813,0.1726,0.1723,0.1721,0,0,0,0,0,0,0,0,0,0,0,0,0,0.1923,0.1923,0.1887,0.1887,0.1886,0.184,0.1839,0.1838,0.1812,0.1813,0.1813,0.1813,0.1727,0.1724,0.1721,0,0,0,0,0,0,0,0,0,0,0,0,0,0.1891,0.1922,0.1887,0.1871,0.1869,0.184,0.1839,0.1837,0.1812,0.1813,0.1813,0.1814,0.1728,0.1724,0.172,0.1687,0,0,0.1708,0.1707,0,0,0,0,0,0,0,0,0.1893,0.189,0.1874,0.1872,0.187,0.1836,0.182,0.1787,0.1812,0.183,0.1813,0.1814,0.1761,0.1755,0.174,0.1683,0.1679,0.1708,0.1706,0.1704,0.1703,0,0,0,0,0,0,0,0.1896,0.1891,0.1864,0.1873,0.1871,0.1856,0.1851,0.1813,0.179,0.1828,0.1827,0.1828,0.1759,0.1744,0.1737,0.1678,0.1708,0.1705,0.1702,0.1701,0.1605,0.1604,0,0,0,0,0,0,0.191,0.1894,0.1866,0.1863,0.1887,0.1855,0.185,0.1843,0.1791,0.1785,0.1828,0.1827,0.175,0.1742,0.1734,0.171,0.1704,0.17,0.1698,0.1605,0.1604,0.1604,0,0,0,0,0,0,0.1911,0.1908,0.1868,0.1881,0.1875,0.1854,0.1847,0.1842,0.183,0.1792,0.1784,0.1822,0.175,0.174,0.1706,0.1706,0.1699,0.1695,0.1605,0.1605,0.1604,0.1651,0,0,0,0,0,0,0.1912,0.1908,0.1906,0.1882,0.1875,0.1851,0.1846,0.1841,0.1832,0.1831,0.1784,0.1776,0.175,0.1712,0.1702,0.1701,0.1692,0.1605,0.1605,0.1604,0.1649,0.1652,0.1654,0,0,0,0,0,0.1913,0.1901,0.1905,0.1902,0.1873,0.1851,0.1846,0.183,0.1831,0.1822,0.1797,0.1778,0.1702,0.1708,0.1697,0.1694,0.1605,0.1605,0.1604,0.1648,0.1651,0.1654,0,0,0,0,0,0,0.1906,0.1897,0.1901,0.1885,0.1875,0.1849,0.1837,0.1833,0.1805,0.1804,0.1771,0.176,0.1733,0.1704,0.1712,0.1665,0.1652,0.1649,0.1689,0.1692,0.1694,0.1717,0.1689,0,0,0,0,0,0.1908,0.1902,0.1892,0.188,0.1875,0.186,0.185,0.1843,0.1819,0.1807,0.178,0.1748,0.1719,0.17,0.1668,0.1637,0.166,0.1628,0.1631,0.1633,0.1643,0.1675,0.1682,0.1603,0.1603,0.1603,0,0,0.1903,0.1898,0.1894,0.188,0.1869,0.186,0.1853,0.1839,0.1835,0.18,0.1779,0.1753,0.1713,0.1685,0.167,0.1662,0.1673,0.1632,0.1635,0.1644,0.1675,0.1683,0.169,0.1602,0.1602,0.1602,0,0,0.1888,0.1885,0.1878,0.1872,0.1865,0.1857,0.1858,0.1838,0.1831,0.181,0.179,0.1767,0.1716,0.1693,0.1674,0.1667,0.1686,0.1657,0.1683,0.1714,0.1721,0.1728,0.18,0.1813,0.1656,0.1656,0.1656,0,0.1882,0.1875,0.1871,0.1864,0.1864,0.186,0.1855,0.1844,0.1818,0.182,0.1808,0.1763,0.1721,0.1704,0.17,0.1673,0.1715,0.1678,0.172,0.1727,0.1733,0.1805,0.1818,0.1658,0.1658,0.1658,0.1657,0,0.1867,0.1863,0.1856,0.1855,0.1853,0.1844,0.1843,0.1842,0.184,0.1836,0.1826,0.1782,0.1764,0.174,0.1713,0.1732,0.1758,0.1725,0.1721,0.1745,0.1818,0.1832,0.1661,0.166,0.166,0.1659,0,0,0.1837,0.1845,0.1842,0.1847,0.185,0.1843,0.1851,0.1856,0.187,0.1852,0.1871,0.1817,0.1818,0.1797,0.1769,0.1781,0.1856,0.1777,0.1778,0.1864,0.1974,0.1965,0.1979,0.1842,0.1844,0.1845,0.202,0,0.1825,0.182,0.183,0.1829,0.1826,0.1842,0.1851,0.1861,0.1871,0.1888,0.1872,0.1868,0.1835,0.1832,0.1844,0.1847,0.1889,0.1814,0.1923,0.1927,0.1929,0.1992,0.1856,0.1997,0.2033,0.2035,0.2037,0,0.1802,0.1806,0.1806,0.1827,0.1828,0.1832,0.1864,0.1873,0.1905,0.1917,0.1937,0.1938,0.1957,0.1916,0.1984,0.1948,0.1974,0.1979,0.1985,0.1968,0.1942,0.197,0.202,0.1941,0.2058,0.2056,0.2055,0,0.1779,0.1786,0.1791,0.1794,0.1817,0.1828,0.1845,0.1879,0.1902,0.1947,0.1981,0.201,0.2034,0.2067,0.2092,0.2052,0.2182,0.2123,0.2152,0.2154,0.2053,0.2042,0.2046,0.2186,0.2186,0.2185,0.2185,0,0.1757,0.1754,0.1779,0.1779,0.1791,0.1816,0.1841,0.1868,0.1922,0.1958,0.1999,0.2043,0.2072,0.2144,0.2154,0.2222,0.2246,0.2188,0.2198,0.2067,0.2056,0.1991,0.1954,0.2192,0.219,0.2189,0.2188,0,0.172,0.1737,0.1738,0.1767,0.1777,0.1784,0.1834,0.1856,0.1921,0.198,0.2003,0.2097,0.2198,0.2253,0.2322,0.2306,0.2281,0.2369,0.2239,0.2229,0.2143,0.2113,0.2096,0.203,0.2431,0.2432,0.2433,0,0.1696,0.1696,0.1722,0.1727,0.1737,0.1758,0.1776,0.1838,0.1877,0.2006,0.2038,0.2169,0.2243,0.2385,0.2374,0.2441,0.2344,0.2355,0.2223,0.215,0.2124,0.2035,0.1972,0.213,0.2128,0.2127,0.2126,0,0.1654,0.1667,0.1674,0.1688,0.1701,0.172,0.176,0.1792,0.188,0.1951,0.206,0.2137,0.2274,0.2275,0.237,0.2372,0.2208,0.2327,0.2264,0.1912,0.1801,0.1736,0.2043,0.2112,0.2113,0.2114,0.2115,0.2116,0.162,0.1615,0.1633,0.1639,0.1657,0.1676,0.1672,0.1733,0.1794,0.1867,0.1993,0.2046,0.2118,0.2216,0.223,0.2139,0.214,0.2032,0.202,0.1952,0.1813,0.2122,0.218,0.2181,0.2183,0.2184,0.2185,0,0.1569,0.1575,0.1583,0.1586,0.1582,0.1616,0.1651,0.1635,0.1671,0.1749,0.1818,0.1851,0.1875,0.1928,0.1896,0.1814,0.171,0.1769,0.1579,0.1546,0.1831,0.1737,0.1684,0.1684,0.1684,0.1684,0.1684,0.1684,0.1541,0.153,0.1535,0.151,0.1513,0.1479,0.1482,0.1475,0.1499,0.1502,0.1498,0.1548,0.1654,0.1667,0.1589,0.1553,0.1415,0.1356,0.1389,0.1546,0.1567,0.1587,0.1489,0.1384,0.1384,0.0988,0.0985,0.0983]},{"header":{"parameterUnit":"m.s-1","parameterCategory":2,"la1":30.2991,"la2":30.254,"lo1":-89.0895,"lo2":-89.0444,"dy":0.0017,"dx":0.0017,"nx":28,"ny":28,"refTime":"2025-04-24T09:00:00:Z","depth":"0","parameterNumber":3,"parameterNumberName":"V-component_of_CURRENTS"},"data":[0,0,0,0,0,0,0,0,0,0,0,0,0,0,0,0,0,0,0,0,0,0,0,0,0,0,0,0,0,0,0,0,0,0,0,0,0,0,0,0,0,0,0,0,0,0,0,0,0,0,0,0,0,0,0,0,0,0,-0.0054,-0.0054,0,-0.0121,-0.0122,-0.0123,-0.0157,-0.0157,-0.0157,-0.0157,-0.0269,-0.0272,-0.0275,0,0,0,0,0,0,0,0,0,0,0,0,0,-0.004,-0.004,-0.0054,-0.0055,-0.0055,-0.0121,-0.0122,-0.0124,-0.0157,-0.0157,-0.0157,-0.0157,-0.0268,-0.0272,-0.0276,0,0,0,0,0,0,0,0,0,0,0,0,0,-0.0073,-0.004,-0.0054,-0.0078,-0.0081,-0.0121,-0.0122,-0.0124,-0.0157,-0.0157,-0.0157,-0.0156,-0.0267,-0.0271,-0.0276,-0.0311,0,0,-0.0291,-0.0293,0,0,0,0,0,0,0,0,-0.0071,-0.0073,-0.0074,-0.0077,-0.008,-0.0129,-0.0159,-0.0188,-0.0157,-0.0131,-0.0157,-0.0156,-0.0225,-0.0233,-0.0249,-0.0316,-0.0321,-0.0291,-0.0294,-0.0296,-0.0297,0,0,0,0,0,0,0,-0.0068,-0.0071,-0.0083,-0.0075,-0.0078,-0.0115,-0.0119,-0.0165,-0.0181,-0.0133,-0.0135,-0.0139,-0.0227,-0.0244,-0.0252,-0.0323,-0.0291,-0.0295,-0.0298,-0.03,-0.0429,-0.043,0,0,0,0,0,0,-0.0051,-0.0069,-0.0081,-0.0085,-0.0072,-0.0115,-0.012,-0.0115,-0.018,-0.0188,-0.0139,-0.014,-0.0236,-0.0246,-0.0256,-0.0304,-0.0296,-0.03,-0.0303,-0.0429,-0.0429,-0.043,0,0,0,0,0,0,-0.0051,-0.0051,-0.0078,-0.0077,-0.0083,-0.0115,-0.011,-0.0116,-0.0131,-0.0184,-0.0194,-0.0147,-0.0237,-0.025,-0.0295,-0.0308,-0.0303,-0.0307,-0.0428,-0.0429,-0.043,-0.0398,0,0,0,0,0,0,-0.005,-0.0051,-0.0046,-0.0075,-0.0082,-0.0101,-0.011,-0.0118,-0.0133,-0.0135,-0.0194,-0.0204,-0.0237,-0.0288,-0.03,-0.0315,-0.0311,-0.0427,-0.0428,-0.0429,-0.0398,-0.0398,-0.0397,0,0,0,0,0,-0.0049,-0.0042,-0.0045,-0.0047,-0.0072,-0.0101,-0.0108,-0.0132,-0.0134,-0.0144,-0.018,-0.0202,-0.0304,-0.0292,-0.0307,-0.0323,-0.0427,-0.0428,-0.0429,-0.0399,-0.0398,-0.0397,0,0,0,0,0,0,-0.0031,-0.0046,-0.0049,-0.0045,-0.007,-0.0105,-0.0116,-0.0129,-0.0165,-0.0166,-0.0212,-0.0225,-0.0269,-0.0301,-0.0287,-0.0363,-0.0368,-0.0373,-0.034,-0.034,-0.0339,-0.032,-0.0315,0,0,0,0,0,-0.0024,-0.0023,-0.0046,-0.0044,-0.0053,-0.0083,-0.0097,-0.0112,-0.0145,-0.016,-0.02,-0.0244,-0.0287,-0.0315,-0.0356,-0.0402,-0.0403,-0.0421,-0.0421,-0.042,-0.0414,-0.0434,-0.0434,-0.0434,-0.0434,-0.0434,0,0,-0.0016,-0.0024,-0.0023,-0.004,-0.006,-0.0076,-0.0092,-0.011,-0.0126,-0.0168,-0.0206,-0.0243,-0.0297,-0.0343,-0.0366,-0.0372,-0.0416,-0.0422,-0.042,-0.0415,-0.0435,-0.0435,-0.0434,-0.0435,-0.0435,-0.0435,0,0,-0.0004,-0.0007,-0.0005,-0.0024,-0.0047,-0.0068,-0.007,-0.0106,-0.0126,-0.0164,-0.0196,-0.0236,-0.0306,-0.0346,-0.0374,-0.0397,-0.0407,-0.0414,-0.0404,-0.0423,-0.0423,-0.0423,-0.0396,-0.0394,-0.042,-0.042,-0.042,0,0.001,0.0009,-0.0011,-0.0018,-0.003,-0.0061,-0.0067,-0.0097,-0.0143,-0.0159,-0.0171,-0.026,-0.0307,-0.0359,-0.037,-0.0396,-0.0391,-0.0401,-0.042,-0.0421,-0.0421,-0.0394,-0.0392,-0.0418,-0.0419,-0.0419,-0.0419,0,0.0017,0.0016,0.0013,-0.0002,-0.0021,-0.0032,-0.0068,-0.0092,-0.0116,-0.0144,-0.0193,-0.0252,-0.03,-0.0329,-0.0361,-0.0394,-0.0382,-0.041,-0.0416,-0.0418,-0.039,-0.0389,-0.0416,-0.0417,-0.0417,-0.0418,0,0,0.0061,0.0028,0.0029,0.0025,-0.0012,-0.0022,-0.0053,-0.0086,-0.0088,-0.0149,-0.0156,-0.0249,-0.0268,-0.0302,-0.0346,-0.0376,-0.0372,-0.0394,-0.0396,-0.0355,-0.0377,-0.0337,-0.0331,-0.0404,-0.0405,-0.0405,-0.0345,0,0.0077,0.0073,0.0047,0.0041,0.0036,-0.0003,-0.0022,-0.0057,-0.0086,-0.0102,-0.017,-0.0197,-0.0262,-0.0274,-0.0317,-0.0353,-0.0371,-0.0383,-0.0391,-0.0391,-0.0346,-0.033,-0.0309,-0.0252,-0.0343,-0.0343,-0.0343,0,0.0097,0.0092,0.0089,0.0072,0.0068,0.0057,0.0037,0.0014,-0.0025,-0.0045,-0.0089,-0.0126,-0.0179,-0.0227,-0.0293,-0.0296,-0.0333,-0.0365,-0.0364,-0.0338,-0.0349,-0.0273,-0.0246,-0.0323,-0.034,-0.0341,-0.0341,0,0.0142,0.0126,0.0127,0.0118,0.0089,0.0084,0.0068,0.0034,0.0033,0.0,0.0019,-0.0062,-0.0068,-0.0149,-0.0217,-0.0253,-0.0261,-0.032,-0.0316,-0.0312,-0.0301,-0.0296,-0.0342,-0.0363,-0.0364,-0.0364,-0.0364,0,0.017,0.0175,0.0151,0.0152,0.0166,0.0129,0.0141,0.0118,0.0109,0.0138,0.0059,0.0085,-0.0051,-0.0073,-0.0165,-0.0208,-0.0219,-0.0297,-0.0299,-0.0287,-0.0281,-0.0354,-0.0407,-0.0361,-0.0362,-0.0362,-0.0363,0,0.0211,0.0194,0.0203,0.0186,0.0186,0.0197,0.0195,0.0209,0.0197,0.0243,0.0243,0.0208,0.0187,0.008,-0.0014,-0.011,-0.0208,-0.0194,-0.0143,-0.0141,-0.0234,-0.0286,-0.0309,-0.0348,-0.0187,-0.0185,-0.0184,0,0.0229,0.0234,0.0238,0.0254,0.0248,0.0256,0.0268,0.0251,0.0283,0.033,0.0376,0.0372,0.0399,0.0296,0.0126,0.0007,-0.0116,-0.0073,-0.0165,-0.0218,-0.0278,-0.0318,-0.0353,-0.0124,-0.0123,-0.0122,-0.0121,0,0.0261,0.0264,0.0272,0.0307,0.0329,0.0354,0.0382,0.0428,0.044,0.0509,0.0612,0.0644,0.0552,0.0443,0.0265,0.0154,-0.0118,-0.0052,-0.0139,-0.0251,-0.0267,-0.031,-0.0155,-0.011,-0.0111,-0.0112,-0.0112,-0.0113,0.029,0.0309,0.0325,0.0362,0.0397,0.0463,0.0511,0.0573,0.0669,0.0786,0.0799,0.0867,0.0682,0.0448,0.0299,0.0018,-0.002,-0.0102,-0.0159,-0.0193,-0.0243,-0.0034,0.002,0.002,0.0019,0.0019,0.0019,0,0.0319,0.034,0.0377,0.0431,0.0489,0.0497,0.0594,0.0665,0.0818,0.0908,0.1009,0.0959,0.0746,0.0477,0.0112,-0.0074,-0.0174,-0.0184,-0.0267,-0.0301,-0.0138,-0.0151,-0.0091,-0.0091,-0.0091,-0.0091,-0.0091,-0.0091,0.0335,0.0375,0.0396,0.0499,0.0547,0.0645,0.0717,0.0843,0.0929,0.106,0.1089,0.1095,0.0902,0.0302,-0.0116,-0.0216,-0.0372,-0.0374,-0.0461,-0.0384,-0.0383,-0.0381,-0.0407,-0.0402,-0.0403,-0.0607,-0.0609,-0.0611]}],[{"header":{"parameterUnit":"m.s-1","parameterCategory":2,"la1":30.2991,"la2":30.254,"lo1":-89.0895,"lo2":-89.0444,"dy":0.0017,"dx":0.0017,"nx":28,"ny":28,"refTime":"2025-04-24T09:00:00:Z","depth":"2","parameterNumber":2,"parameterNumberName":"U-component_of_CURRENTS"},"data":[0,0,0,0,0,0,0,0,0,0,0,0,0,0,0,0,0,0,0,0,0,0,0,0,0,0,0,0,0,0,0,0,0,0,0,0,0,0,0,0,0,0,0,0,0,0,0,0,0,0,0,0,0,0,0,0,0,0,0.2051,0.2051,0,0.2022,0.2022,0.2021,0.2004,0.2004,0.2004,0.2004,0.1971,0.197,0.1969,0,0,0,0,0,0,0,0,0,0,0,0,0,0.2039,0.2039,0.2051,0.2051,0.2051,0.2022,0.2022,0.2021,0.2004,0.2004,0.2004,0.2004,0.1971,0.197,0.1969,0,0,0,0,0,0,0,0,0,0,0,0,0,0.2028,0.2039,0.2051,0.2041,0.204,0.2023,0.2022,0.2021,0.2004,0.2004,0.2004,0.2005,0.1972,0.197,0.1969,0.1954,0,0,0.1964,0.1963,0,0,0,0,0,0,0,0,0.2028,0.2028,0.2042,0.2041,0.204,0.202,0.2005,0.1999,0.2004,0.2014,0.2004,0.2005,0.1989,0.1986,0.1976,0.1952,0.1951,0.1964,0.1963,0.1962,0.1962,0,0,0,0,0,0,0,0.2029,0.2029,0.2036,0.2042,0.2041,0.202,0.2019,0.2004,0.1998,0.2013,0.2013,0.2014,0.1988,0.1977,0.1975,0.195,0.1964,0.1962,0.1961,0.1961,0.1913,0.1913,0,0,0,0,0,0,0.2041,0.203,0.2037,0.2036,0.2038,0.2021,0.2019,0.2024,0.1998,0.1995,0.2014,0.2014,0.198,0.1977,0.1974,0.196,0.1962,0.1961,0.196,0.1914,0.1913,0.1913,0,0,0,0,0,0,0.2041,0.2042,0.2039,0.2034,0.2033,0.2021,0.2026,0.2023,0.2014,0.1999,0.1996,0.2009,0.198,0.1976,0.1966,0.1958,0.196,0.1959,0.1914,0.1913,0.1913,0.1929,0,0,0,0,0,0,0.2041,0.2042,0.2047,0.2035,0.2034,0.2028,0.2026,0.2022,0.2016,0.2015,0.1993,0.199,0.198,0.1969,0.1965,0.1956,0.1957,0.1914,0.1914,0.1913,0.1929,0.1929,0.193,0,0,0,0,0,0.2041,0.2039,0.2048,0.2049,0.2042,0.2028,0.2024,0.2015,0.2015,0.2008,0.2001,0.1991,0.1962,0.1968,0.1963,0.1954,0.1915,0.1914,0.1913,0.1929,0.1929,0.193,0,0,0,0,0,0,0.201,0.2037,0.2046,0.2047,0.2042,0.2026,0.2017,0.2015,0.2002,0.2003,0.1991,0.1987,0.1972,0.1962,0.1969,0.1937,0.1935,0.1933,0.1948,0.1948,0.1949,0.1965,0.1956,0,0,0,0,0,0.2015,0.2039,0.204,0.2041,0.2039,0.203,0.2024,0.202,0.2009,0.2004,0.199,0.1977,0.1964,0.1958,0.194,0.1928,0.1954,0.1917,0.1917,0.1918,0.1927,0.1957,0.1962,0.1911,0.1911,0.1911,0,0,0.2014,0.2022,0.2041,0.204,0.2034,0.2029,0.2026,0.2015,0.2014,0.2002,0.1989,0.1975,0.196,0.1945,0.1937,0.1937,0.195,0.1917,0.1917,0.1927,0.1957,0.1963,0.1967,0.191,0.191,0.191,0,0,0.2004,0.2019,0.2032,0.203,0.2027,0.2023,0.2023,0.201,0.2006,0.1997,0.1987,0.1977,0.1951,0.1943,0.1936,0.1928,0.1948,0.1914,0.1932,0.1961,0.1966,0.197,0.2035,0.2045,0.1917,0.1917,0.1917,0,0.2001,0.2009,0.2027,0.2022,0.2024,0.2023,0.202,0.2014,0.2001,0.2005,0.1995,0.1973,0.1953,0.1951,0.1943,0.193,0.1964,0.1933,0.1964,0.1968,0.1973,0.2038,0.2049,0.1918,0.1918,0.1918,0.1918,0,0.1994,0.2,0.1997,0.2011,0.2012,0.2005,0.2009,0.2008,0.2007,0.2007,0.2003,0.1982,0.1978,0.1957,0.1947,0.1961,0.1983,0.196,0.1968,0.198,0.2047,0.2058,0.1919,0.1919,0.1918,0.1918,0,0,0.1984,0.2,0.1996,0.2001,0.2007,0.2002,0.2012,0.202,0.2034,0.2019,0.2038,0.2004,0.2006,0.1999,0.1982,0.1995,0.2054,0.1993,0.1994,0.2068,0.2155,0.2059,0.2063,0.2041,0.2042,0.2043,0.2198,0,0.197,0.1969,0.1984,0.1981,0.1979,0.1998,0.2008,0.2021,0.2033,0.2048,0.2044,0.2047,0.202,0.2021,0.2032,0.2046,0.2081,0.2017,0.2123,0.2127,0.2048,0.207,0.1891,0.2003,0.221,0.2212,0.2213,0,0.1947,0.1951,0.1956,0.1975,0.1977,0.198,0.2012,0.2022,0.2057,0.207,0.209,0.2096,0.2121,0.2086,0.2154,0.2118,0.2144,0.2153,0.2159,0.207,0.205,0.2019,0.2017,0.2232,0.2231,0.2229,0.2228,0,0.1919,0.1927,0.1935,0.1939,0.1963,0.1973,0.1988,0.2025,0.2048,0.2092,0.2124,0.2155,0.2183,0.2213,0.2241,0.221,0.2321,0.2282,0.2231,0.2228,0.2095,0.2075,0.2337,0.2336,0.2336,0.2336,0.2335,0,0.1896,0.1891,0.192,0.192,0.1929,0.1955,0.1977,0.2004,0.2056,0.2092,0.2135,0.217,0.2213,0.2276,0.2288,0.2306,0.2373,0.2248,0.2253,0.2095,0.2074,0.2275,0.2266,0.2341,0.234,0.2339,0.2338,0,0.1855,0.1878,0.1877,0.1905,0.1914,0.1918,0.1965,0.1985,0.2047,0.2104,0.2126,0.2212,0.2275,0.2328,0.2392,0.2364,0.2387,0.2378,0.2206,0.2183,0.2274,0.2264,0.2342,0.234,0.2338,0.2336,0.2335,0,0.1823,0.1831,0.1858,0.1862,0.187,0.1887,0.1904,0.1964,0.2001,0.2118,0.2146,0.2236,0.2253,0.2331,0.231,0.2336,0.2377,0.2178,0.2048,0.2274,0.2271,0.2264,0.2257,0.1913,0.1909,0.1905,0.1902,0,0.1774,0.1799,0.181,0.1821,0.1831,0.1846,0.1882,0.1911,0.1997,0.2028,0.2089,0.2111,0.2187,0.2098,0.213,0.2115,0.2148,0.2095,0.2399,0.1908,0.1872,0.1868,0.1875,0.1867,0.1871,0.1873,0.1875,0.1877,0.1731,0.1735,0.1767,0.1767,0.1784,0.1797,0.178,0.1818,0.1835,0.1859,0.196,0.1914,0.1953,0.1859,0.1829,0.1814,0.1948,0.1856,0.1868,0.1884,0.1774,0.1732,0.1686,0.1688,0.169,0.1692,0.1694,0,0.1656,0.1699,0.1709,0.1712,0.1696,0.1736,0.1753,0.17,0.1657,0.1696,0.1685,0.1544,0.148,0.153,0.1449,0.1454,0.1443,0.1393,0.1363,0.1399,0.143,0.1296,0.1083,0.1081,0.1079,0.1077,0,0,0.1627,0.162,0.1632,0.1605,0.1619,0.1562,0.1546,0.1474,0.1451,0.1355,0.1305,0.1383,0.1458,0.1233,0.1225,0.1136,0.1253,0.1091,0.1585,0.1583,0.1612,0.1706,0.154,0,0,0,0,0]},{"header":{"parameterUnit":"m.s-1","parameterCategory":2,"la1":30.2991,"la2":30.254,"lo1":-89.0895,"lo2":-89.0444,"dy":0.0017,"dx":0.0017,"nx":28,"ny":28,"refTime":"2025-04-24T09:00:00:Z","depth":"2","parameterNumber":3,"parameterNumberName":"V-component_of_CURRENTS"},"data":[0,0,0,0,0,0,0,0,0,0,0,0,0,0,0,0,0,0,0,0,0,0,0,0,0,0,0,0,0,0,0,0,0,0,0,0,0,0,0,0,0,0,0,0,0,0,0,0,0,0,0,0,0,0,0,0,0,0,-0.0075,-0.0075,0,-0.0139,-0.014,-0.0141,-0.0177,-0.0177,-0.0177,-0.0177,-0.0289,-0.0292,-0.0295,0,0,0,0,0,0,0,0,0,0,0,0,0,-0.0037,-0.0038,-0.0075,-0.0075,-0.0076,-0.0139,-0.014,-0.0141,-0.0177,-0.0177,-0.0177,-0.0177,-0.0288,-0.0291,-0.0295,0,0,0,0,0,0,0,0,0,0,0,0,0,-0.0074,-0.0038,-0.0075,-0.01,-0.0103,-0.0138,-0.014,-0.0141,-0.0177,-0.0177,-0.0177,-0.0177,-0.0287,-0.0291,-0.0296,-0.0325,0,0,-0.0309,-0.0311,0,0,0,0,0,0,0,0,-0.0072,-0.0076,-0.0096,-0.0098,-0.0101,-0.0148,-0.0168,-0.0204,-0.0177,-0.0151,-0.0177,-0.0177,-0.0245,-0.0253,-0.0267,-0.0331,-0.0335,-0.031,-0.0313,-0.0315,-0.0316,0,0,0,0,0,0,0,-0.007,-0.0074,-0.0102,-0.0096,-0.01,-0.0126,-0.0131,-0.0175,-0.02,-0.0153,-0.0155,-0.0159,-0.0247,-0.0263,-0.027,-0.0337,-0.031,-0.0314,-0.0317,-0.0318,-0.0432,-0.0432,0,0,0,0,0,0,-0.0055,-0.0071,-0.01,-0.0104,-0.0084,-0.0127,-0.0132,-0.0135,-0.0199,-0.0207,-0.0159,-0.0161,-0.0255,-0.0265,-0.0274,-0.0317,-0.0315,-0.0319,-0.0321,-0.0432,-0.0432,-0.0432,0,0,0,0,0,0,-0.0054,-0.0057,-0.0097,-0.0087,-0.0094,-0.0127,-0.013,-0.0136,-0.0151,-0.0202,-0.0212,-0.0167,-0.0255,-0.0268,-0.0311,-0.0321,-0.0321,-0.0325,-0.0431,-0.0432,-0.0432,-0.04,0,0,0,0,0,0,-0.0052,-0.0056,-0.0056,-0.0086,-0.0094,-0.0119,-0.013,-0.0137,-0.0152,-0.0155,-0.0212,-0.0223,-0.0256,-0.0304,-0.0315,-0.0328,-0.0329,-0.0431,-0.0432,-0.0432,-0.0401,-0.0399,-0.0398,0,0,0,0,0,-0.0051,-0.0051,-0.0056,-0.006,-0.0092,-0.0119,-0.0126,-0.015,-0.0152,-0.0162,-0.0196,-0.0221,-0.0315,-0.0308,-0.0321,-0.0335,-0.0431,-0.0431,-0.0432,-0.0401,-0.04,-0.0398,0,0,0,0,0,0,-0.0027,-0.0055,-0.0061,-0.0067,-0.009,-0.0124,-0.0134,-0.0147,-0.0182,-0.0183,-0.0228,-0.0241,-0.0281,-0.0312,-0.0302,-0.0368,-0.0376,-0.0379,-0.0348,-0.0347,-0.0346,-0.0327,-0.0332,0,0,0,0,0,-0.0022,-0.0035,-0.006,-0.0065,-0.0074,-0.0102,-0.0116,-0.0131,-0.0162,-0.0176,-0.0216,-0.0257,-0.0295,-0.0322,-0.0361,-0.0402,-0.0405,-0.0418,-0.0417,-0.0415,-0.0409,-0.0428,-0.0428,-0.0434,-0.0434,-0.0434,0,0,-0.0017,-0.003,-0.0039,-0.0062,-0.0081,-0.0094,-0.0111,-0.0128,-0.0142,-0.0184,-0.0219,-0.0254,-0.0303,-0.0345,-0.0366,-0.0373,-0.041,-0.0416,-0.0415,-0.0409,-0.0429,-0.0428,-0.0428,-0.0435,-0.0435,-0.0435,0,0,-0.0008,-0.0021,-0.0028,-0.0045,-0.0067,-0.0087,-0.0089,-0.0123,-0.0141,-0.0176,-0.0206,-0.0241,-0.0308,-0.0342,-0.0368,-0.0383,-0.0399,-0.04,-0.0387,-0.0406,-0.0405,-0.0404,-0.0382,-0.038,-0.0404,-0.0404,-0.0404,0,0.0002,-0.0006,-0.0034,-0.004,-0.005,-0.008,-0.0084,-0.0111,-0.0155,-0.0168,-0.0182,-0.0261,-0.0304,-0.0347,-0.0355,-0.038,-0.0379,-0.0388,-0.0402,-0.0402,-0.0402,-0.038,-0.0378,-0.0403,-0.0403,-0.0403,-0.0403,0,0.0007,0.0,-0.0004,-0.0023,-0.004,-0.0049,-0.0082,-0.0103,-0.0125,-0.0149,-0.0192,-0.0247,-0.0289,-0.0315,-0.0345,-0.0371,-0.0365,-0.0393,-0.0402,-0.0399,-0.0376,-0.0374,-0.0401,-0.0401,-0.0402,-0.0402,0,0,0.0037,0.0005,0.0006,0.0004,-0.0029,-0.0038,-0.0064,-0.0091,-0.0091,-0.0147,-0.015,-0.0233,-0.0251,-0.0281,-0.0322,-0.035,-0.0347,-0.0372,-0.0374,-0.034,-0.0357,-0.0334,-0.033,-0.0381,-0.0382,-0.0382,-0.033,0,0.0053,0.0051,0.0026,0.0023,0.002,-0.0015,-0.0031,-0.006,-0.0085,-0.0097,-0.0156,-0.018,-0.0242,-0.0253,-0.0293,-0.0328,-0.0346,-0.0356,-0.0373,-0.0372,-0.0346,-0.0329,-0.0314,-0.0266,-0.0329,-0.0328,-0.0328,0,0.0073,0.0068,0.0068,0.0055,0.0052,0.0044,0.003,0.0011,-0.0021,-0.0037,-0.0076,-0.011,-0.0156,-0.0204,-0.0269,-0.0272,-0.0311,-0.0343,-0.0343,-0.0332,-0.0347,-0.0286,-0.0261,-0.0326,-0.0326,-0.0326,-0.0326,0,0.0116,0.0103,0.0106,0.0099,0.0075,0.0072,0.0059,0.0032,0.0033,0.0007,0.0027,-0.0047,-0.0052,-0.0132,-0.0199,-0.0235,-0.0246,-0.0302,-0.0314,-0.0311,-0.0306,-0.0303,-0.0344,-0.0344,-0.0344,-0.0344,-0.0344,0,0.0145,0.0152,0.0129,0.0131,0.0148,0.0115,0.013,0.0111,0.0107,0.0138,0.0067,0.0094,-0.0037,-0.006,-0.0152,-0.0203,-0.0207,-0.0295,-0.0301,-0.0292,-0.0288,-0.0358,-0.036,-0.0342,-0.0343,-0.0343,-0.0343,0,0.0186,0.017,0.0181,0.0167,0.0168,0.018,0.0181,0.0198,0.0189,0.0238,0.0239,0.0211,0.0181,0.0075,-0.0021,-0.0113,-0.0185,-0.0205,-0.0161,-0.0164,-0.0249,-0.025,-0.0221,-0.0219,-0.0218,-0.0218,-0.0217,0,0.0205,0.021,0.0216,0.0233,0.0227,0.0237,0.0251,0.0238,0.0272,0.0321,0.0367,0.0356,0.0361,0.0249,0.0085,-0.0044,-0.0103,-0.012,-0.0207,-0.023,-0.0238,-0.0241,-0.0244,-0.0174,-0.0173,-0.0172,-0.0172,0,0.0238,0.024,0.0249,0.0285,0.0307,0.0334,0.0363,0.0409,0.0423,0.0479,0.0567,0.0576,0.0474,0.0347,0.0165,0.0059,-0.0107,-0.0108,-0.0137,-0.0212,-0.0184,-0.0193,-0.0198,-0.0164,-0.0165,-0.0166,-0.0166,-0.0166,0.0268,0.0285,0.0301,0.0338,0.0374,0.044,0.0484,0.0534,0.0612,0.0694,0.0706,0.0713,0.0562,0.0324,0.0172,-0.0013,-0.0033,-0.0127,-0.013,-0.0135,-0.0143,-0.0116,-0.0082,-0.0082,-0.0082,-0.0083,-0.0083,0,0.03,0.0315,0.0352,0.0405,0.046,0.0471,0.0565,0.0607,0.0719,0.0771,0.0821,0.069,0.0555,0.0375,0.0115,-0.0041,-0.0085,-0.0097,-0.0124,-0.0129,-0.0134,-0.0145,-0.0083,-0.0084,-0.0084,-0.0085,0,0,0.0318,0.0355,0.0372,0.0468,0.0514,0.0599,0.0664,0.0732,0.0779,0.0829,0.0825,0.0793,0.0597,0.0408,0.0208,0.0063,-0.0007,0.0027,0.0044,0.0031,0.0028,-0.0131,-0.015,0,0,0,0,0]}],[{"header":{"parameterUnit":"m.s-1","parameterCategory":2,"la1":30.2991,"la2":30.254,"lo1":-89.0895,"lo2":-89.0444,"dy":0.0017,"dx":0.0017,"nx":28,"ny":28,"refTime":"2025-04-24T09:00:00:Z","depth":"4","parameterNumber":2,"parameterNumberName":"U-component_of_CURRENTS"},"data":[0,0,0,0,0,0,0,0,0,0,0,0,0,0,0,0,0,0,0,0,0,0,0,0,0,0,0,0,0,0,0,0,0,0,0,0,0,0,0,0,0,0,0,0,0,0,0,0,0,0,0,0,0,0,0,0,0,0,0.0823,0.0824,0,0.0878,0.0878,0.0878,0.0909,0.091,0.0911,0.0912,0.096,0.0961,0.0961,0,0,0,0,0,0,0,0,0,0,0,0,0,0.0785,0.0784,0.0823,0.0824,0.0826,0.0878,0.0878,0.0878,0.0909,0.091,0.0911,0.0913,0.096,0.096,0.0961,0,0,0,0,0,0,0,0,0,0,0,0,0,0.0808,0.0784,0.0822,0.0855,0.0859,0.0878,0.0878,0.0877,0.0909,0.091,0.0912,0.0913,0.096,0.096,0.0961,0.0934,0,0,0.0963,0.0963,0,0,0,0,0,0,0,0,0.0806,0.0808,0.0848,0.0853,0.0858,0.0897,0.0883,0.0899,0.0908,0.088,0.0912,0.0914,0.0943,0.0945,0.0939,0.0937,0.0939,0.0963,0.0963,0.0963,0.0963,0,0,0,0,0,0,0,0.0804,0.0806,0.0835,0.085,0.0856,0.0881,0.0885,0.0885,0.0895,0.0882,0.0887,0.0908,0.0945,0.0938,0.094,0.0939,0.0963,0.0963,0.0963,0.0964,0.1044,0.1046,0,0,0,0,0,0,0.0813,0.0804,0.0833,0.0837,0.0846,0.0881,0.0885,0.0875,0.0895,0.0903,0.0907,0.091,0.0937,0.094,0.0942,0.0994,0.0963,0.0964,0.0964,0.1042,0.1044,0.1046,0,0,0,0,0,0,0.0811,0.0814,0.0831,0.0832,0.0837,0.0881,0.0869,0.0875,0.0898,0.0916,0.0921,0.0929,0.0938,0.0942,0.0974,0.0994,0.0964,0.0964,0.104,0.1043,0.1045,0.1046,0,0,0,0,0,0,0.0809,0.0812,0.0805,0.0831,0.0838,0.0858,0.0869,0.0876,0.0912,0.0916,0.0936,0.094,0.0939,0.0973,0.0975,0.0994,0.0965,0.1038,0.1041,0.1044,0.1044,0.1049,0.1053,0,0,0,0,0,0.0807,0.0797,0.0804,0.0809,0.0827,0.086,0.0864,0.0895,0.0912,0.092,0.0944,0.0941,0.0997,0.0975,0.0976,0.0996,0.1036,0.104,0.1044,0.1042,0.1048,0.1053,0,0,0,0,0,0,0.0794,0.0801,0.0809,0.0805,0.0839,0.0869,0.0888,0.0907,0.0928,0.0942,0.0951,0.0956,0.0991,0.1001,0.0976,0.1035,0.1021,0.1026,0.1019,0.1025,0.1029,0.1054,0.0965,0,0,0,0,0,0.0784,0.0774,0.08,0.0809,0.0822,0.0857,0.0876,0.0899,0.0928,0.0939,0.0959,0.0986,0.1002,0.1021,0.1033,0.1058,0.1071,0.108,0.1084,0.1088,0.1113,0.1143,0.1152,0.106,0.106,0.106,0,0,0.0792,0.0794,0.0795,0.0806,0.0833,0.085,0.087,0.0911,0.0928,0.094,0.0975,0.0995,0.1013,0.1041,0.106,0.1056,0.1119,0.1093,0.1095,0.1119,0.1148,0.1157,0.1165,0.1063,0.1062,0.1062,0,0,0.0793,0.0798,0.0783,0.0808,0.0849,0.0868,0.0886,0.0925,0.0944,0.0981,0.0994,0.1039,0.1065,0.1084,0.1095,0.1136,0.1134,0.1144,0.1189,0.1217,0.1224,0.1231,0.1239,0.1247,0.1153,0.1153,0.1153,0,0.0797,0.0784,0.0794,0.0796,0.083,0.0878,0.0894,0.0912,0.0962,0.0985,0.1002,0.1073,0.1087,0.1124,0.115,0.1144,0.1157,0.1157,0.122,0.1227,0.1234,0.1241,0.1249,0.1153,0.1153,0.1153,0.1153,0,0.079,0.0789,0.0799,0.0804,0.0835,0.0872,0.0906,0.0933,0.0975,0.1009,0.1071,0.1103,0.1157,0.1165,0.1173,0.1232,0.1221,0.121,0.1198,0.1243,0.1248,0.1256,0.1154,0.1154,0.1154,0.1154,0,0,0.0777,0.0782,0.079,0.0797,0.085,0.0874,0.0905,0.095,0.0977,0.1044,0.11,0.1152,0.1202,0.1221,0.1239,0.1278,0.1329,0.128,0.1281,0.1273,0.1384,0.1304,0.1305,0.1326,0.1328,0.133,0.1359,0,0.0774,0.0763,0.078,0.0811,0.0819,0.0873,0.0898,0.0948,0.0998,0.106,0.113,0.1193,0.121,0.1252,0.1295,0.132,0.1356,0.1322,0.1357,0.1358,0.1269,0.1315,0.1336,0.1366,0.1368,0.1369,0.137,0,0.0764,0.0756,0.0764,0.0801,0.0814,0.0849,0.0913,0.094,0.1024,0.106,0.1149,0.122,0.131,0.1319,0.1396,0.1374,0.1397,0.1413,0.1413,0.1352,0.1295,0.132,0.1385,0.1384,0.1383,0.1382,0.1381,0,0.0741,0.0758,0.0764,0.0783,0.0819,0.0851,0.0893,0.0959,0.0989,0.1087,0.1134,0.1243,0.1322,0.1369,0.1437,0.1423,0.1511,0.1479,0.1426,0.1419,0.1478,0.1471,0.1544,0.1544,0.1544,0.1544,0.1544,0,0.0728,0.074,0.0759,0.0763,0.0798,0.0842,0.089,0.0927,0.1007,0.1058,0.1153,0.1221,0.1349,0.1428,0.1453,0.1468,0.1521,0.1452,0.1432,0.1475,0.1468,0.1482,0.1475,0.1545,0.1544,0.1544,0.1544,0,0.0702,0.0713,0.0722,0.076,0.0782,0.0817,0.0896,0.0921,0.098,0.1053,0.1103,0.1242,0.1334,0.1421,0.1514,0.1483,0.1501,0.1495,0.1541,0.152,0.1382,0.1375,0.1423,0.1421,0.1419,0.1417,0.1416,0,0.0681,0.0672,0.071,0.0727,0.0756,0.0805,0.0835,0.0908,0.0935,0.1053,0.1091,0.1243,0.1325,0.1375,0.1464,0.1493,0.1488,0.1471,0.1434,0.14,0.1375,0.1371,0.1366,0.1413,0.1412,0.1412,0.1411,0,0.0636,0.0656,0.0662,0.0687,0.0732,0.0757,0.0814,0.0833,0.0914,0.0982,0.1068,0.1153,0.1259,0.135,0.1395,0.141,0.1461,0.1449,0.1453,0.1419,0.1387,0.1364,0.1362,0.1404,0.1405,0.1406,0.1406,0,0.0616,0.0614,0.062,0.0653,0.0691,0.0705,0.074,0.0787,0.0832,0.0959,0.1003,0.1133,0.1263,0.1309,0.1342,0.1361,0.1341,0.1284,0.1296,0.1304,0.1256,0.1198,0.1155,0,0,0,0,0,0.0597,0.0578,0.058,0.0603,0.0635,0.0662,0.0715,0.0749,0.0842,0.0877,0.0932,0.1024,0.1116,0.1196,0.1195,0.129,0.1339,0.128,0.1277,0.1366,0.1374,0.133,0,0,0,0,0,0,0.0577,0.0573,0.0557,0.0551,0.0562,0.0588,0.063,0.0692,0.0709,0.0816,0.0881,0.0956,0.1069,0.1114,0.1178,0.1196,0.117,0.1359,0.1356,0.1362,0.1369,0.1376,0.1332,0,0,0,0,0]},{"header":{"parameterUnit":"m.s-1","parameterCategory":2,"la1":30.2991,"la2":30.254,"lo1":-89.0895,"lo2":-89.0444,"dy":0.0017,"dx":0.0017,"nx":28,"ny":28,"refTime":"2025-04-24T09:00:00:Z","depth":"4","parameterNumber":3,"parameterNumberName":"V-component_of_CURRENTS"},"data":[0,0,0,0,0,0,0,0,0,0,0,0,0,0,0,0,0,0,0,0,0,0,0,0,0,0,0,0,0,0,0,0,0,0,0,0,0,0,0,0,0,0,0,0,0,0,0,0,0,0,0,0,0,0,0,0,0,0,0.0262,0.0262,0,0.0263,0.0263,0.0264,0.0287,0.0287,0.0287,0.0287,0.0312,0.0313,0.0313,0,0,0,0,0,0,0,0,0,0,0,0,0,0.0228,0.023,0.0262,0.0262,0.0261,0.0263,0.0263,0.0264,0.0287,0.0287,0.0287,0.0288,0.0312,0.0313,0.0313,0,0,0,0,0,0,0,0,0,0,0,0,0,0.0243,0.023,0.0262,0.0269,0.0269,0.0263,0.0263,0.0264,0.0287,0.0287,0.0287,0.0288,0.0312,0.0313,0.0314,0.0316,0,0,0.0316,0.0317,0,0,0,0,0,0,0,0,0.0242,0.0245,0.0269,0.0269,0.0269,0.027,0.026,0.0281,0.0287,0.0286,0.0287,0.0288,0.0297,0.0299,0.0306,0.0317,0.0318,0.0316,0.0317,0.0317,0.0317,0,0,0,0,0,0,0,0.0241,0.0244,0.0268,0.0268,0.0268,0.0253,0.0257,0.0264,0.0295,0.0286,0.0287,0.0278,0.0298,0.0305,0.0307,0.0318,0.0316,0.0317,0.0317,0.0318,0.0358,0.0359,0,0,0,0,0,0,0.0233,0.0244,0.0268,0.0268,0.0249,0.0254,0.0258,0.0274,0.0295,0.0296,0.0278,0.0279,0.0304,0.0306,0.0308,0.0345,0.0317,0.0318,0.0318,0.0358,0.0359,0.0359,0,0,0,0,0,0,0.0233,0.0236,0.0268,0.025,0.0252,0.0254,0.0272,0.0274,0.0286,0.0287,0.029,0.0287,0.0304,0.0307,0.0331,0.0345,0.0318,0.0319,0.0357,0.0358,0.0359,0.0398,0,0,0,0,0,0,0.0232,0.0237,0.0251,0.025,0.0253,0.027,0.0272,0.0274,0.0277,0.0279,0.0296,0.0298,0.0304,0.033,0.0332,0.0346,0.032,0.0357,0.0358,0.0359,0.0396,0.04,0.0404,0,0,0,0,0,0.0231,0.024,0.0252,0.0255,0.0272,0.027,0.0271,0.0275,0.0277,0.0287,0.0305,0.0298,0.0338,0.0332,0.0334,0.0348,0.0356,0.0357,0.0359,0.0394,0.0399,0.0404,0,0,0,0,0,0,0.0225,0.0242,0.0256,0.027,0.0275,0.0272,0.0275,0.0277,0.0298,0.0303,0.031,0.0315,0.0341,0.0337,0.033,0.0361,0.0343,0.0345,0.037,0.0375,0.0378,0.0373,0.032,0,0,0,0,0,0.0232,0.0252,0.0259,0.027,0.0274,0.0279,0.0279,0.0282,0.0292,0.0302,0.0314,0.0327,0.0346,0.0355,0.0368,0.0386,0.0356,0.0394,0.0397,0.0401,0.0397,0.0376,0.0377,0.0363,0.0363,0.0363,0,0,0.0227,0.0242,0.0251,0.0271,0.0277,0.0291,0.0281,0.0283,0.0301,0.03,0.0334,0.0343,0.0355,0.0382,0.0391,0.0381,0.0386,0.0402,0.0405,0.04,0.0377,0.0379,0.038,0.0364,0.0364,0.0364,0,0,0.023,0.0249,0.027,0.0278,0.0288,0.0294,0.0296,0.0303,0.0317,0.0344,0.0352,0.037,0.0394,0.0409,0.0419,0.0448,0.0408,0.0447,0.0462,0.0442,0.0443,0.0443,0.0389,0.0385,0.0447,0.0447,0.0447,0,0.0229,0.0261,0.0271,0.0291,0.0299,0.0299,0.0318,0.0331,0.0346,0.0361,0.0359,0.0396,0.0409,0.0439,0.0455,0.0458,0.0423,0.0446,0.0446,0.0446,0.0446,0.0391,0.0385,0.0449,0.0449,0.0448,0.0448,0,0.0245,0.0274,0.0281,0.0322,0.0332,0.0341,0.0357,0.0374,0.0387,0.0399,0.0427,0.0441,0.0457,0.0468,0.0476,0.0484,0.0451,0.0455,0.0434,0.0449,0.0391,0.0384,0.0452,0.0451,0.045,0.045,0,0,0.0241,0.0289,0.0293,0.0323,0.0349,0.0359,0.0391,0.042,0.0439,0.0454,0.0472,0.051,0.0499,0.0508,0.0509,0.0498,0.047,0.0476,0.0474,0.042,0.0392,0.0362,0.0351,0.0471,0.047,0.047,0.0346,0,0.0258,0.0303,0.0323,0.0367,0.0393,0.0409,0.0438,0.0462,0.0479,0.0495,0.0502,0.0521,0.0519,0.0523,0.0512,0.0485,0.0457,0.0502,0.0387,0.0383,0.0353,0.0345,0.0469,0.034,0.0339,0.0338,0.0337,0,0.0271,0.0304,0.035,0.0404,0.0417,0.0442,0.0485,0.0511,0.0531,0.0541,0.0546,0.054,0.0533,0.0526,0.0463,0.0487,0.0441,0.0412,0.0406,0.036,0.0341,0.0325,0.0324,0.0325,0.0326,0.0327,0.0328,0,0.0266,0.0324,0.0365,0.0381,0.0437,0.0464,0.0494,0.0525,0.0552,0.0562,0.0566,0.0548,0.053,0.0482,0.0421,0.0437,0.0332,0.0347,0.0267,0.0262,0.0309,0.031,0.0293,0.0293,0.0293,0.0294,0.0294,0,0.0277,0.0312,0.0368,0.0391,0.0439,0.0474,0.0521,0.0544,0.0571,0.0591,0.0583,0.0574,0.0519,0.0457,0.0404,0.0301,0.031,0.0257,0.0233,0.0326,0.033,0.0302,0.0305,0.0289,0.029,0.0291,0.0292,0,0.0269,0.0306,0.0356,0.0418,0.0441,0.0474,0.0543,0.0571,0.0592,0.0609,0.061,0.0579,0.0493,0.042,0.0322,0.0271,0.0188,0.0149,0.0221,0.0204,0.013,0.0137,0.0043,0.0041,0.004,0.0038,0.0037,0,0.0273,0.0297,0.0367,0.0397,0.0431,0.0486,0.0524,0.0575,0.0602,0.0609,0.0609,0.0539,0.0502,0.0324,0.0256,0.012,0.0117,0.0055,0.0128,0.0121,0.0107,0.0116,0.0124,0.0034,0.0034,0.0034,0.0033,0,0.028,0.0302,0.0342,0.0393,0.0441,0.0498,0.0555,0.0573,0.0615,0.063,0.0593,0.052,0.0411,0.0303,0.0186,0.0104,0.0091,0.0038,0.0042,0.0109,0.0109,0.0099,0.0109,0.0027,0.0028,0.0029,0.0029,0,0.0281,0.0301,0.0346,0.0391,0.0446,0.0495,0.053,0.0559,0.0589,0.0599,0.0576,0.0487,0.0438,0.0292,0.0194,0.0097,0.009,0.0074,0.0076,0.0082,0.0146,0.0154,0.0055,0,0,0,0,0,0.0284,0.0306,0.0344,0.0394,0.0444,0.0478,0.0544,0.0574,0.0604,0.0576,0.0582,0.0487,0.0342,0.0286,0.0182,0.0166,0.0071,0.0041,0.0053,-0.0005,0.0001,0.007,0,0,0,0,0,0,0.0288,0.0322,0.0338,0.0387,0.0414,0.0474,0.0516,0.054,0.0532,0.0543,0.0468,0.0449,0.0309,0.0388,0.0171,0.0144,0.0137,-0.0019,-0.0021,-0.0009,-0.0003,0.0002,0.0075,0,0,0,0,0]}]]